星链-32171 (STARLINK-32171)

导读

STARLINK-32171是美国SpaceX星链互联网卫星星座的组成部分,于2024年8月2日发射升空,归属美国所有。星链项目旨在为全球提供高速低延迟互联网服务,该卫星入轨后,进一步拓展了星链星座的覆盖范围与服务能力,助力全球偏远地区、移动场景的网络接入与通信保障。

Basic Information
目录编号:
60332
目录名称:
STARLINK-32171
国际标识:
2024-136D
轨道中心:
EARTH
卫星名称:
星链-32171 (STARLINK-32171)
卫星全名:
星链-32171 (STARLINK-32171)
卫星状态:
在轨 (已飞行763 天)
发射日期:
2024-08-02 UTC
国别 :
美国 (US)
星等 :
--
Orbit Information
数据来源 国际轨道数据
星历时间: 2026-09-03T22:55:25+0800
1天前
查看轨道信息
半长轴: 6848.865km
偏心率: 0.0001152
轨道倾角: 53.162°
近地点辐角 92.737°
升交点赤经 328.006°
平近点角 267.377°
近地点: 469.939km
远地点: 471.517km
周期: 94.013分钟
每日圈数: 15.317041
Detailed Information
卫星平台:
Starlink v2.0 mini
运营商:
太空探索技术公司
运营商所在国:
美国
制造商(研发单位):
太空探索技术公司
制造商所在国:
美国
使用方式:
暂无
Satellite Introduction
星链(Starlink)计划是由太空探索技术公司(SpaceX)提出的一个巨型低轨卫星互联网星座项目,计划在2019年至2024年间在太空搭建由约1.2万颗卫星组成的“星链”网络,其中1584颗将部署在地球上空550千米处的近地轨道,并从2020年开始工作。该卫星仍在工作。
2D Orbit Map
3D Orbit Map
Orbit Altitude Analysis Chart
Orbit Inclination Analysis Chart
Orbit Comprehensive Analysis Chart
View Comprehensive Chart
Conjunction Data List
Event ID Objects TCA Miss Dist (km) Collision Risk Probability Collision Risk Index (CRI) Action
CDM_260904-160805-146506-033221
2026-09-04T
16:08:21+0000
0.812 km
远距离
4.466491E-5 中风险 0.68
CDM_260905-021905-146506-033221
2026-09-05T
02:19:03+0000
0.910 km
远距离
3.061097E-5 中风险 0.65
CDM_260828-173706-033206-866421
2026-08-28T
17:37:58+0000
0.941 km
远距离
3.023479E-5 中风险 0.65